When you browse on this site, cookies collect data to enhance your experience and personalize the content and advertising you see.
Visit our Privacy Policy to learn more. By continuing to use the site, you agree to this use of cookies and data.

Hourly Weather Arwayheer

Today, 21 September, Monday

Time Temperature Precipitation Wind Pressure Humidity
00:00 +4°C° 0 mm 1 mps 613 mmHg 66%
01:00 +4°C° 0 mm 1 mps 613 mmHg 68%
02:00 +3°C° 0 mm 1 mps 613 mmHg 69%
03:00 +3°C° 0 mm 1 mps 612 mmHg 70%
04:00 +3°C° 0 mm 1 mps 612 mmHg 71%
05:00 +3°C° 0 mm 1 mps 612 mmHg 70%
06:00 +4°C° 0 mm 1 mps 613 mmHg 69%
07:00 +5°C° 0 mm 1 mps 614 mmHg 65%
08:00 +7°C° 0 mm 1 mps 614 mmHg 58%
09:00 +7°C° 0 mm 2 mps 614 mmHg 52%
10:00 +8°C° 0 mm 2 mps 615 mmHg 45%
11:00 +9°C° 0 mm 2 mps 615 mmHg 42%
12:00 +11°C° 0 mm 3 mps 615 mmHg 38%
13:00 +12°C° 0 mm 3 mps 615 mmHg 33%
14:00 +12°C° 0 mm 3 mps 615 mmHg 32%
15:00 +13°C° 0 mm 3 mps 614 mmHg 32%
16:00 +13°C° 0 mm 3 mps 614 mmHg 31%
17:00 +11°C° 0 mm 3 mps 613 mmHg 36%
18:00 +9°C° 0 mm 3 mps 613 mmHg 41%
19:00 +8°C° 0 mm 3 mps 612 mmHg 46%
20:00 +7°C° 0 mm 3 mps 612 mmHg 46%
21:00 +5°C° 0 mm 3 mps 612 mmHg 46%
22:00 +6°C° 0 mm 2 mps 612 mmHg 47%
23:00 +5°C° 0 mm 2 mps 611 mmHg 48%

Tomorrow, 22 September, Tuesday

Time Temperature Precipitation Wind Pressure Humidity
00:00 +5°C° 0 mm 2 mps 611 mmHg 49%
01:00 +5°C° 0 mm 2 mps 610 mmHg 51%
02:00 +4°C° 0 mm 2 mps 610 mmHg 52%
03:00 +5°C° 0 mm 1 mps 609 mmHg 54%
04:00 +5°C° 0 mm 1 mps 609 mmHg 55%
05:00 +5°C° 0 mm 1 mps 609 mmHg 55%
06:00 +6°C° 0 mm 1 mps 610 mmHg 55%
07:00 +6°C° 0 mm 1 mps 610 mmHg 54%
08:00 +9°C° 0 mm 1 mps 610 mmHg 47%
09:00 +11°C° 0 mm 1 mps 611 mmHg 40%
10:00 +13°C° 0 mm 1 mps 612 mmHg 33%
11:00 +14°C° 0 mm 1 mps 612 mmHg 30%
12:00 +15°C° 0 mm 1 mps 612 mmHg 26%
13:00 +18°C° 0 mm 1 mps 611 mmHg 22%
14:00 +17°C° 0 mm 2 mps 611 mmHg 22%
15:00 +17°C° 0 mm 2 mps 611 mmHg 22%
16:00 +17°C° 0 mm 2 mps 611 mmHg 21%
17:00 +15°C° 0 mm 2 mps 610 mmHg 28%
18:00 +13°C° 0 mm 2 mps 609 mmHg 34%
19:00 +10°C° 0 mm 2 mps 608 mmHg 40%
20:00 +10°C° 0 mm 1 mps 608 mmHg 41%
21:00 +10°C° 0 mm 1 mps 608 mmHg 42%
22:00 +9°C° 0 mm 1 mps 608 mmHg 43%
23:00 +8°C° 0 mm 2 mps 608 mmHg 43%

Day after tomorrow, 23 September, Wednesday

Time Temperature Precipitation Wind Pressure Humidity
00:00 +8°C° 0 mm 2 mps 608 mmHg 43%
01:00 +9°C° 0 mm 2 mps 608 mmHg 43%
02:00 +8°C° 0 mm 2 mps 608 mmHg 45%
03:00 +8°C° 0 mm 2 mps 608 mmHg 47%
04:00 +7°C° 0 mm 2 mps 608 mmHg 49%
05:00 +8°C° 0 mm 2 mps 608 mmHg 51%
06:00 +9°C° 0 mm 1 mps 608 mmHg 53%
07:00 +9°C° 0 mm 1 mps 609 mmHg 55%
08:00 +11°C° 0 mm 1 mps 610 mmHg 50%
09:00 +13°C° 0 mm 1 mps 610 mmHg 44%
10:00 +15°C° 0 mm 1 mps 611 mmHg 39%
11:00 +15°C° 0 mm 1 mps 611 mmHg 37%
12:00 +16°C° 0 mm 2 mps 611 mmHg 35%
13:00 +17°C° 0 mm 3 mps 611 mmHg 32%
14:00 +17°C° 0.1 mm 3 mps 611 mmHg 34%
15:00 +17°C° 0.1 mm 4 mps 610 mmHg 35%
16:00 +17°C° 0.1 mm 4 mps 610 mmHg 36%
17:00 +13°C° 0.3 mm 4 mps 609 mmHg 50%
18:00 +11°C° 0.3 mm 4 mps 609 mmHg 64%
19:00 +8°C° 0.3 mm 3 mps 608 mmHg 78%
20:00 +8°C° 0.1 mm 2 mps 608 mmHg 81%
21:00 +9°C° 0.1 mm 1 mps 608 mmHg 84%
22:00 +7°C° 0.1 mm 0 mps 608 mmHg 86%
23:00 +7°C° 0 mm 0 mps 608 mmHg 88%

24 September, Thursday

Time Temperature Precipitation Wind Pressure Humidity
00:00 +6°C° 0 mm 0 mps 607 mmHg 89%
01:00 +7°C° 0 mm 1 mps 607 mmHg 91%
02:00 +5°C° 0 mm 0 mps 607 mmHg 90%
03:00 +5°C° 0 mm 0 mps 607 mmHg 90%
04:00 +5°C° 0 mm 0 mps 606 mmHg 89%
05:00 +6°C° 0 mm 1 mps 607 mmHg 87%
06:00 +7°C° 0 mm 1 mps 607 mmHg 84%
07:00 +7°C° 0 mm 1 mps 607 mmHg 82%
08:00 +9°C° 0 mm 1 mps 608 mmHg 70%
09:00 +10°C° 0 mm 2 mps 608 mmHg 59%
10:00 +13°C° 0 mm 3 mps 609 mmHg 47%
11:00 +14°C° 0 mm 4 mps 609 mmHg 41%
12:00 +16°C° 0 mm 5 mps 609 mmHg 36%
13:00 +17°C° 0 mm 6 mps 609 mmHg 30%
14:00 +17°C° 0 mm 6 mps 609 mmHg 30%
15:00 +17°C° 0 mm 5 mps 608 mmHg 31%
16:00 +16°C° 0 mm 5 mps 608 mmHg 31%
17:00 +15°C° 0 mm 4 mps 607 mmHg 35%
18:00 +13°C° 0 mm 4 mps 606 mmHg 39%
19:00 +11°C° 0 mm 3 mps 606 mmHg 43%
20:00 +11°C° 0 mm 3 mps 606 mmHg 43%
21:00 +10°C° 0 mm 2 mps 605 mmHg 43%
22:00 +10°C° 0 mm 2 mps 605 mmHg 43%
23:00 +9°C° 0 mm 2 mps 605 mmHg 43%

25 September, Friday

Time Temperature Precipitation Wind Pressure Humidity
00:00 +9°C° 0 mm 2 mps 604 mmHg 44%
01:00 +8°C° 0 mm 2 mps 604 mmHg 44%
02:00 +9°C° 0 mm 2 mps 603 mmHg 43%
03:00 +9°C° 0 mm 2 mps 603 mmHg 42%
04:00 +9°C° 0 mm 3 mps 603 mmHg 41%
05:00 +9°C° 0 mm 3 mps 603 mmHg 42%
06:00 +8°C° 0 mm 4 mps 603 mmHg 42%
07:00 +8°C° 0 mm 4 mps 603 mmHg 43%
08:00 +10°C° 0 mm 6 mps 603 mmHg 39%
09:00 +12°C° 0 mm 7 mps 604 mmHg 36%
10:00 +15°C° 0 mm 9 mps 604 mmHg 32%
11:00 +16°C° 0 mm 9 mps 604 mmHg 30%
12:00 +16°C° 0 mm 9 mps 604 mmHg 29%
13:00 +17°C° 0 mm 10 mps 604 mmHg 28%
14:00 +14°C° 0 mm 10 mps 603 mmHg 33%
15:00 +12°C° 0 mm 10 mps 602 mmHg 39%
16:00 +9°C° 0 mm 11 mps 602 mmHg 45%
17:00 +9°C° 0 mm 8 mps 602 mmHg 42%
18:00 +8°C° 0 mm 6 mps 602 mmHg 39%
19:00 +8°C° 0 mm 3 mps 602 mmHg 36%
20:00 +7°C° 0 mm 3 mps 602 mmHg 38%
21:00 +6°C° 0 mm 2 mps 602 mmHg 40%
22:00 +5°C° 0 mm 2 mps 602 mmHg 41%
23:00 +4°C° 0 mm 2 mps 602 mmHg 42%

26 September, Saturday

Time Temperature Precipitation Wind Pressure Humidity
00:00 +4°C° 0 mm 2 mps 601 mmHg 42%
01:00 +3°C° 0 mm 2 mps 601 mmHg 42%
02:00 +2°C° 0 mm 2 mps 601 mmHg 42%
03:00 +1°C° 0 mm 2 mps 601 mmHg 42%
04:00 +2°C° 0 mm 1 mps 601 mmHg 42%
05:00 +2°C° 0 mm 1 mps 602 mmHg 41%
06:00 +2°C° 0 mm 1 mps 602 mmHg 40%
07:00 +2°C° 0 mm 1 mps 602 mmHg 39%
08:00 +4°C° 0 mm 1 mps 603 mmHg 34%
09:00 +5°C° 0 mm 1 mps 604 mmHg 29%
10:00 +6°C° 0 mm 2 mps 604 mmHg 24%
11:00 +7°C° 0 mm 2 mps 604 mmHg 22%
12:00 +8°C° 0 mm 2 mps 605 mmHg 20%
13:00 +9°C° 0 mm 2 mps 605 mmHg 18%
14:00 +9°C° 0 mm 3 mps 605 mmHg 19%
15:00 +9°C° 0 mm 3 mps 605 mmHg 19%
16:00 +8°C° 0 mm 4 mps 605 mmHg 20%
17:00 +7°C° 0 mm 4 mps 605 mmHg 25%
18:00 +5°C° 0 mm 4 mps 605 mmHg 31%
19:00 +4°C° 0 mm 4 mps 605 mmHg 36%
20:00 +3°C° 0 mm 4 mps 605 mmHg 38%
21:00 +1°C° 0 mm 5 mps 606 mmHg 39%
22:00 +1°C° 0 mm 5 mps 606 mmHg 41%
23:00 0°C° 0 mm 4 mps 606 mmHg 43%
Show more